Regional Weather Roundup
Issued by NWS

Home | Current Version | Previous Version | Graphics & Text | Print | Product List | Glossary On
Versions: 1 2 3 4 5 6 7 8 9 10 11 12 13 14 15 16 17 18 19 20 21 22 23 24 25 26 27 28 29 30 31 32 33 34 35 36 37 38 39 40 41 42 43 44 45 46 47 48 49 50
000
ASUS43 KOAX 282202
RWRNE

WEATHER ROUNDUP FOR NEBRASKA
NATIONAL WEATHER SERVICE OMAHA NE
400 PM CST WED JAN 28 2015

NOTES: SATELLITE DATA IS BEING USED TO AUGMENT CLOUD COVER ABOVE
       12000 FEET.
       "FAIR" INDICATES FEW OR NO CLOUDS BELOW 12,000 FEET WITH NO
       SIGNIFICANT WEATHER AND/OR OBSTRUCTIONS TO VISIBILITY.

  * THESE STATIONS DO NOT REPORT WEATHER SUCH AS RAIN...SNOW OR FOG.

NEZ001>004-019>022-054>056-282300-
NEBRASKA PANHANDLE

CITY           SKY/WX    TMP DP  RH WIND       PRES   REMARKS
SCOTTSBLUFF    CLOUDY    47  38  71 NW21G29   30.08R
ALLIANCE       PTSUNNY   53  30  41 N23G36    30.00R
CHADRON        CLOUDY    52  32  46 NW20G32   30.02R
SIDNEY         PTSUNNY   53  35  50 NW29G45   30.03R
$$

NEZ057>060-069>072-079>082-282300-
SOUTHWEST NEBRASKA

CITY           SKY/WX    TMP DP  RH WIND       PRES   REMARKS
NORTH PLATTE   MOSUNNY   62  29  28 NW25G36   29.86R
IMPERIAL       PTSUNNY   62  32  32 NW28G39   29.92R
MCCOOK         SUNNY     67  32  27 NW26G37   29.85R
$$

NEZ005>010-023>029-035>040-094-282300-
NORTH CENTRAL NEBRASKA

CITY           SKY/WX    TMP DP  RH WIND       PRES   REMARKS
VALENTINE      PTSUNNY   58  27  30 NW21G28   29.85R
BROKEN BOW     SUNNY     65  33  30 N22G36    29.79R
ORD            SUNNY     65  29  25 NW21G32   29.74R
$$

NEZ041-046>049-061>064-073>077-083>087-282300-
SOUTH CENTRAL NEBRASKA

CITY           SKY/WX    TMP DP  RH WIND       PRES   REMARKS
GRAND ISLAND   SUNNY     68  33  27 NW18      29.72R
HASTINGS       SUNNY     69  29  22 NW21      29.72R
KEARNEY *      SUNNY     68  32  26 NW23      29.75R
$$

NEZ011>018-030>034-042>045-282300-
NORTHEAST NEBRASKA

CITY           SKY/WX    TMP DP  RH WIND       PRES   REMARKS
NORFOLK        MOSUNNY   64  36  35 NW16      29.66R
COLUMBUS *     SUNNY     64  37  36 NW6       29.69R
TEKAMAH        PTSUNNY   55  36  48 S8        29.67S
$$

NEZ050>053-065>068-078-088>093-282300-
SOUTHEAST NEBRASKA

CITY           SKY/WX    TMP DP  RH WIND       PRES   REMARKS
LINCOLN        MOSUNNY   62  35  36 W14       29.70R
OMAHA EPPLEY   PTSUNNY   58  36  43 SW3       29.68R
FALLS CITY     PTSUNNY   67  38  34 W12       29.65F
$$

NEZ044-045-051>053-067-282300-
OMAHA AREA

CITY           SKY/WX    TMP DP  RH WIND       PRES   REMARKS
OMAHA EPPLEY   PTSUNNY   58  36  43 SW3       29.68R
OFFUTT AFB     PTSUNNY   58  37  44 S2        29.67R
$$



USA.gov is the U.S. government's official web portal to all federal, state and local government web resources and services.